Wind_Speed
11 12 12 13 14 14 14 13 13 12 11 10 10 10 10 10 12 12 12 11 12 11 11 11 11 11 10 10 10 10 10 10 10 9 9 9 9 8 8 8 8 8 7
10 11 12 13 13 13 13 13 12 11 10 10 10 10 10 10 12 11 11 11 12 11 11 11 11 11 11 10 10 10 10 10 10 9 9 9 9 9 8 8 8 8 8
10 11 12 13 12 12 13 12 12 11 11 11 10 11 11 11 11 11 11 11 11 11 11 11 11 11 11 10 10 10 10 10 9 9 9 9 9 9 8 8 8 8 8
10 11 12 12 12 12 12 12 12 11 11 10 10 10 11 11 11 10 11 11 11 11 11 11 11 10 10 10 10 10 10 9 9 9 9 9 9 9 8 8 8 8 8
11 11 11 12 11 11 11 10 10 10 10 10 10 10 10 10 10 10 10 11 10 10 10 10 10 10 10 10 10 10 10 9 10 10 9 9 9 9 8 8 8 8 8
11 11 11 11 11 11 10 10 11 10 10 10 10 10 10 10 11 10 10 10 10 10 10 10 10 10 10 10 9 10 9 10 10 10 10 9 9 8 8 8 8 8 7
11 11 11 11 11 11 10 10 10 10 10 10 10 10 10 10 10 10 10 10 10 10 10 10 10 10 10 9 9 9 9 10 10 9 9 9 9 8 8 7 7 7 7
11 11 11 10 10 10 9 10 10 9 10 10 10 10 11 10 10 9 9 9 9 9 9 9 10 9 9 9 9 9 9 9 8 9 8 8 8 7 7 7 7 6 6
12 11 11 11 10 9 9 9 10 10 10 10 10 10 10 9 9 9 9 9 9 9 9 9 9 9 9 9 9 9 8 8 8 8 8 8 7 6 6 6 6 6 5
13 12 11 11 10 9 9 9 9 9 9 10 10 9 9 8 8 7 7 8 8 8 8 8 8 8 8 8 8 8 8 8 8 8 8 8 7 6 6 6 5 5 4
14 12 12 11 10 10 9 9 9 9 9 9 9 8 8 8 7 7 6 7 7 7 7 7 7 7 7 7 8 7 8 8 7 7 7 7 7 6 6 6 5 4 4
15 13 12 12 11 11 10 9 9 8 8 8 7 7 7 7 7 7 6 6 7 7 7 7 6 7 6 6 6 6 6 7 7 6 6 6 5 5 5 5 5 4 4
16 15 13 13 11 11 11 10 9 8 8 7 7 7 7 7 6 6 5 5 6 6 6 6 6 6 6 5 5 5 4 5 5 5 5 4 4 4 4 3 3 3 3
16 16 14 13 12 11 10 10 9 8 8 8 7 7 6 6 5 5 5 5 5 5 5 5 5 5 5 4 3 3 3 3 3 3 3 3 3 3 3 3 2 2 2
16 15 14 13 12 11 10 8 8 8 8 7 7 6 6 5 5 4 4 3 4 3 4 4 3 3 3 2 2 2 2 2 2 2 2 2 2 2 2 3 3 3 3
17 16 15 14 13 11 10 8 8 8 7 7 6 5 5 4 4 3 3 2 2 2 2 2 2 2 1 1 1 1 1 2 2 2 2 2 3 3 3 3 4 4 5
17 16 15 14 13 11 10 9 8 7 7 6 5 5 4 4 3 2 2 1 1 1 2 2 2 1 1 1 1 2 2 3 3 3 4 4 4 5 5 5 6 6 6
16 16 15 15 13 12 11 10 9 8 7 6 5 4 4 3 3 2 1 0 0 1 1 2 2 2 2 3 3 3 4 4 4 4 5 5 6 6 6 7 8 8 8
16 16 15 14 14 12 11 10 9 8 7 6 5 4 4 3 2 1 1 1 1 1 2 2 3 3 3 4 4 4 5 5 5 5 6 6 7 8 8 8 8 9 9
16 16 16 15 14 12 10 10 9 8 7 6 6 5 4 3 2 1 2 2 2 2 2 3 4 4 5 5 6 6 6 6 6 7 8 8 8 9 9 9 9 10 10
16 16 15 15 14 13 11 10 9 8 7 6 5 5 3 3 2 2 3 2 2 3 3 4 4 5 6 6 7 7 7 7 8 8 8 9 9 10 10 10 10 10 11
15 15 14 13 13 12 11 10 10 9 7 6 5 5 4 3 3 4 4 3 3 4 4 5 5 5 6 7 7 8 8 9 9 10 10 10 10 10 11 11 11 11 12
14 14 14 14 13 12 11 10 10 9 8 7 6 5 5 4 4 5 5 5 5 5 6 6 6 6 7 7 7 8 9 10 10 11 10 10 10 11 11 12 12 12 13
13 13 14 13 12 12 11 10 9 9 8 8 7 6 6 6 5 6 6 7 6 6 7 7 8 9 9 9 8 9 10 10 11 11 12 12 12 12 13 13 13 13 13
14 13 13 12 12 11 12 11 9 9 9 9 8 7 6 6 7 7 7 7 7 7 8 8 9 9 10 10 10 10 10 11 11 11 12 13 14 14 14 13 13 14 14
12 12 12 12 12 12 11 11 10 10 10 10 9 8 8 8 7 7 7 7 8 8 9 10 10 10 11 11 11 11 11 11 12 12 13 14 14 14 14 14 14 14 15
Wind_Direction
74 81 82 84 83 82 84 82 83 85 89 90 89 92 98 99 100 98 98 96 94 94 96 99 99 101 103 103 102 101 99 98 96 98 101 103 105 107 109 110 110 112 115
78 80 80 84 84 83 85 86 85 86 87 89 90 91 96 104 104 102 101 99 97 96 96 99 100 102 103 101 100 100 99 96 95 97 99 103 106 109 111 111 112 113 116
82 83 83 85 85 85 86 86 85 85 84 86 89 88 91 102 106 105 103 99 98 99 98 98 99 100 100 99 96 96 98 97 97 98 99 102 104 107 109 111 114 114 115
82 84 84 85 86 88 88 88 87 87 86 88 88 90 90 94 101 101 99 99 100 99 99 98 97 97 98 97 95 96 98 98 97 98 99 100 103 104 105 107 108 110 114
83 86 87 85 84 86 87 85 86 87 90 92 92 95 95 97 98 98 97 98 101 99 100 101 99 98 97 96 94 95 98 98 96 97 99 100 102 101 99 98 105 109 113
83 87 87 85 83 85 86 85 87 87 86 90 96 98 100 100 101 100 101 101 104 104 104 103 100 98 97 96 95 95 97 97 96 96 97 98 98 98 98 97 103 105 110
78 84 86 85 84 88 88 90 89 90 93 94 97 100 102 103 104 103 101 101 105 105 105 105 100 98 96 96 95 93 93 93 97 96 95 95 94 94 98 99 100 102 105
75 79 82 84 87 91 93 92 93 95 98 99 97 99 98 101 103 102 102 103 106 107 106 104 101 98 95 94 92 90 89 90 94 95 92 90 90 91 93 94 97 101 105
70 73 76 83 86 91 97 97 96 98 99 100 101 100 99 98 102 103 104 106 108 107 103 103 102 100 96 94 91 91 88 87 90 90 85 85 85 87 90 92 95 97 100
69 72 74 78 80 87 94 97 97 99 100 101 101 103 103 102 101 103 103 105 107 105 102 104 104 102 97 94 91 89 87 87 89 84 79 77 77 81 84 86 89 90 89
65 69 74 75 78 84 93 97 98 102 102 104 104 104 106 105 102 101 103 106 107 108 109 109 108 107 101 97 92 86 85 84 82 81 75 72 72 75 80 79 79 82 83
62 65 73 75 78 83 89 96 102 105 104 102 104 103 105 105 104 102 101 103 108 113 113 110 110 108 102 98 93 88 85 83 77 73 68 68 70 72 72 66 66 68 72
61 64 69 73 77 83 88 94 99 103 103 98 99 100 101 102 101 99 99 106 113 116 115 112 111 109 107 103 97 94 89 82 74 64 59 55 56 63 62 55 57 58 55
60 63 67 71 73 78 87 93 96 99 101 99 99 97 100 103 104 100 100 107 113 114 116 114 113 112 111 110 105 92 86 73 69 56 45 42 36 37 38 32 30 24 18
59 62 63 65 69 70 78 88 95 99 100 103 100 99 101 102 99 94 96 110 122 126 129 131 126 121 117 111 96 81 75 58 42 20 11 6 2 4 2 355 349 344 337
59 60 62 65 66 66 70 80 87 95 98 103 104 102 99 95 87 82 86 104 136 150 159 152 149 149 141 96 36 17 10 4 351 343 332 327 328 334 332 322 319 316 314
57 57 60 62 62 63 63 69 73 80 88 91 95 99 99 88 83 78 89 115 173 205 198 205 211 223 237 255 274 295 312 318 321 320 312 301 301 309 313 311 309 303 301
55 56 56 58 60 61 62 63 64 69 75 81 82 87 90 84 77 71 76 89 223 241 234 230 238 246 264 275 280 286 289 290 297 306 303 299 299 302 303 302 306 306 301
53 54 52 52 53 56 57 56 57 60 65 70 70 74 74 71 74 57 34 332 281 242 245 256 257 262 277 286 289 287 284 291 293 297 300 299 298 298 302 302 301 301 300
50 49 48 47 47 48 50 51 53 51 54 56 59 61 60 53 49 20 335 313 299 280 268 262 265 266 281 288 287 286 287 288 290 293 296 294 292 294 297 298 295 297 300
44 44 45 46 46 46 46 46 44 44 45 47 44 35 28 20 9 349 337 320 304 292 281 280 279 275 279 282 283 282 283 284 288 292 293 294 293 291 292 294 295 294 299
40 39 40 41 41 41 40 40 37 35 33 33 30 16 2 354 339 328 324 321 300 290 285 287 288 283 283 283 284 281 279 280 284 289 289 291 291 291 291 294 295 295 296
32 33 33 31 32 32 32 31 28 25 19 13 10 357 343 331 320 317 313 307 293 286 285 286 287 288 287 286 286 285 284 284 284 286 286 286 286 288 292 291 291 295 295
28 27 29 28 28 26 24 22 17 11 7 2 357 349 338 326 316 310 308 305 294 282 284 287 287 288 292 287 286 289 288 284 285 283 284 285 288 288 290 290 287 288 293
24 23 24 22 18 14 16 16 12 6 2 356 352 346 335 322 312 308 306 305 304 293 288 288 289 290 291 290 287 287 289 285 286 284 283 283 286 288 292 292 288 289 292
17 18 17 16 13 8 10 8 4 360 357 356 351 341 329 322 314 308 304 304 304 299 295 292 289 290 291 290 290 289 287 286 286 285 285 284 287 288 291 294 291 292 293
Height
5871 5870 5870 5870 5870 5870 5871 5871 5871 5872 5872 5872 5873 5873 5873 5874 5874 5875 5876 5877 5877 5877 5878 5878 5879 5880 5880 5881 5881 5882 5882 5883 5883 5883 5884 5884 5884 5885 5885 5886 5886 5886 5887
5873 5872 5872 5872 5872 5872 5873 5873 5873 5874 5874 5874 5875 5875 5875 5876 5876 5877 5878 5879 5879 5879 5880 5881 5881 5882 5882 5883 5883 5883 5884 5884 5884 5885 5885 5885 5885 5886 5886 5887 5887 5887 5888
5874 5874 5874 5874 5873 5874 5874 5875 5875 5875 5876 5876 5877 5877 5877 5878 5878 5878 5879 5880 5881 5881 5882 5883 5884 5884 5884 5885 5885 5885 5885 5886 5886 5886 5886 5887 5887 5887 5887 5888 5888 5888 5889
5876 5876 5875 5875 5875 5876 5876 5877 5877 5877 5877 5878 5878 5879 5879 5880 5880 5881 5881 5882 5883 5883 5884 5885 5886 5886 5886 5886 5887 5887 5887 5887 5888 5888 5888 5888 5888 5889 5889 5889 5889 5889 5890
5877 5877 5877 5876 5877 5877 5878 5878 5878 5879 5879 5880 5880 5881 5881 5882 5882 5883 5883 5884 5885 5886 5886 5887 5887 5888 5888 5888 5888 5888 5889 5889 5889 5890 5890 5890 5890 5890 5890 5890 5890 5890 5891
5879 5878 5878 5878 5878 5879 5879 5879 5880 5880 5881 5881 5882 5883 5883 5884 5884 5885 5886 5886 5887 5888 5888 5889 5889 5890 5890 5890 5890 5890 5890 5891 5891 5891 5891 5891 5891 5892 5892 5891 5891 5892 5892
5880 5880 5879 5879 5880 5880 5880 5881 5881 5882 5882 5883 5884 5884 5885 5886 5886 5887 5887 5888 5889 5890 5890 5890 5891 5891 5891 5892 5892 5892 5892 5892 5893 5893 5893 5893 5893 5893 5893 5893 5893 5893 5893
5882 5882 5881 5881 5881 5881 5882 5882 5883 5883 5884 5885 5885 5886 5887 5887 5888 5889 5889 5890 5891 5891 5892 5892 5893 5893 5893 5893 5893 5894 5894 5894 5894 5894 5894 5894 5894 5894 5894 5894 5894 5894 5894
5884 5883 5883 5883 5883 5883 5883 5884 5884 5885 5886 5886 5887 5887 5888 5889 5889 5890 5891 5891 5892 5893 5893 5894 5894 5894 5894 5895 5895 5895 5895 5895 5896 5895 5895 5895 5895 5895 5895 5895 5895 5895 5895
5886 5885 5885 5885 5885 5885 5885 5885 5886 5886 5887 5888 5888 5889 5889 5890 5891 5891 5892 5893 5894 5894 5895 5895 5896 5896 5896 5896 5897 5897 5897 5897 5897 5897 5897 5896 5896 5896 5896 5896 5896 5896 5896
5888 5887 5887 5887 5887 5886 5886 5887 5887 5888 5889 5889 5890 5890 5891 5891 5892 5893 5894 5894 5895 5896 5896 5897 5897 5897 5897 5898 5898 5898 5898 5898 5898 5898 5898 5898 5898 5897 5897 5897 5897 5897 5897
5890 5890 5889 5889 5889 5888 5888 5889 5889 5890 5891 5891 5891 5892 5892 5893 5893 5894 5895 5895 5896 5897 5897 5897 5898 5898 5898 5899 5899 5899 5899 5900 5900 5899 5899 5899 5899 5898 5898 5898 5898 5898 5897
5893 5892 5891 5891 5891 5891 5891 5891 5891 5892 5892 5893 5893 5893 5894 5894 5895 5895 5896 5896 5897 5897 5898 5898 5899 5899 5900 5900 5900 5900 5900 5900 5900 5900 5900 5900 5900 5899 5899 5899 5899 5898 5898
5895 5895 5894 5893 5893 5893 5893 5893 5893 5893 5893 5894 5895 5895 5895 5895 5896 5896 5897 5897 5898 5898 5899 5899 5900 5900 5900 5901 5901 5901 5901 5901 5901 5901 5901 5900 5900 5900 5900 5899 5899 5899 5898
5898 5898 5897 5896 5895 5895 5894 5894 5894 5895 5895 5895 5896 5896 5896 5896 5897 5897 5898 5898 5898 5899 5899 5900 5900 5901 5901 5901 5901 5902 5902 5902 5901 5901 5901 5901 5900 5900 5900 5899 5899 5899 5898
5901 5900 5899 5898 5898 5897 5897 5896 5896 5896 5896 5897 5897 5897 5897 5897 5898 5898 5898 5899 5899 5899 5900 5900 5900 5901 5901 5901 5902 5902 5902 5902 5901 5901 5901 5901 5900 5900 5899 5899 5899 5898 5898
5904 5903 5902 5901 5900 5900 5899 5898 5898 5898 5898 5898 5898 5898 5898 5898 5898 5899 5899 5899 5899 5899 5900 5900 5901 5901 5901 5901 5901 5902 5902 5901 5901 5901 5901 5900 5900 5899 5899 5898 5898 5897 5897
5907 5906 5905 5904 5903 5902 5901 5901 5900 5900 5899 5900 5899 5899 5899 5899 5899 5899 5899 5899 5899 5899 5900 5900 5900 5901 5901 5901 5901 5901 5901 5900 5900 5900 5900 5900 5899 5899 5898 5898 5897 5896 5896
5910 5909 5907 5906 5905 5904 5903 5903 5902 5901 5901 5901 5901 5900 5900 5900 5900 5899 5899 5899 5899 5900 5900 5900 5900 5900 5900 5900 5900 5900 5900 5900 5899 5899 5899 5898 5898 5898 5897 5896 5896 5895 5894
5913 5912 5910 5909 5907 5907 5906 5905 5904 5903 5903 5902 5902 5901 5901 5900 5900 5900 5899 5899 5899 5899 5899 5899 5899 5899 5899 5899 5899 5899 5899 5899 5898 5898 5897 5897 5896 5896 5895 5895 5894 5893 5893
5915 5914 5912 5911 5910 5909 5908 5907 5906 5905 5904 5903 5903 5902 5902 5901 5900 5900 5899 5899 5899 5899 5899 5899 5898 5898 5898 5898 5898 5898 5898 5897 5897 5896 5896 5895 5895 5894 5893 5893 5892 5891 5890
5917 5916 5914 5913 5911 5910 5909 5908 5908 5906 5905 5904 5903 5903 5902 5901 5901 5900 5899 5899 5898 5898 5898 5898 5898 5897 5897 5897 5897 5896 5896 5896 5895 5895 5894 5893 5893 5892 5891 5891 5890 5889 5888
5919 5917 5916 5914 5913 5912 5910 5909 5908 5907 5906 5905 5904 5903 5902 5901 5900 5900 5899 5899 5898 5898 5897 5897 5897 5896 5896 5895 5895 5895 5895 5894 5893 5893 5892 5891 5891 5890 5889 5888 5887 5886 5885
5920 5918 5917 5916 5914 5913 5911 5910 5909 5908 5906 5905 5904 5902 5901 5900 5900 5899 5898 5898 5897 5897 5896 5896 5895 5895 5894 5893 5893 5893 5893 5892 5891 5890 5890 5889 5888 5887 5886 5885 5884 5884 5882
5921 5920 5918 5917 5915 5914 5912 5910 5909 5908 5906 5905 5903 5902 5901 5900 5899 5898 5897 5896 5896 5895 5895 5894 5894 5893 5892 5891 5891 5890 5890 5889 5888 5888 5887 5886 5886 5884 5883 5882 5881 5880 5879
5922 5920 5919 5917 5915 5914 5912 5910 5909 5908 5906 5905 5903 5902 5900 5899 5898 5897 5896 5895 5895 5894 5893 5892 5892 5891 5890 5889 5889 5888 5887 5886 5885 5884 5884 5883 5882 5882 5880 5879 5878 5877 5876